Home   Weather   Murree   Past weeks

Flag for Pakistan Past Weather in Murree, Pakistan — Yesterday and Last 2 Weeks

Now
84 °F

Passing clouds.


Feels Like: 84 °F
Forecast: 50 / 75 °F
Wind: 23 mph from Southeast

Location: Islamabad Airport

Current Time: Apr 30, 2017 at 12:01:08 pm

Latest Report: Apr 30, 2017 at 11:30 am


Visibility: N/A

Pressure: 29.92 "Hg (23.40 "Hg at 2173m altitude)

Humidity: 43%

Dew Point: 59 °F

Location of MurreeLocation

Past Weather in Murree — Graph

°F

Murree Temperature Yesterday

Maximum temperature yesterday: 81 °F (at 3:00 pm)
Minimum temperature yesterday: 66 °F (at 1:00 am)
Average temperature yesterday: 74 °F

High & Low Weather Summary for the Past Weeks

 TemperatureHumidityPressure
High104 °F (Apr 20, 4:00 pm)88% (Apr 23, 10:00 pm)29.95 "Hg (Apr 23, 10:00 pm)
Low64 °F (Apr 23, 8:00 pm)13% (Apr 16, 5:00 pm)29.56 "Hg (Apr 20, 4:00 pm)
Average81 °F46%29.77 "Hg
* Reported Apr 15 10:00 am — Apr 30 10:30 am, Murree, Weather by CustomWeather, © 2017

Note: Actual official high and low records may vary slightly from our data, if they occured in-between our weather recording intervals... More about our weather records

Advertising

Murree Weather History for the Previous 24 Hours

Scroll right to see more
 ConditionsComfort  
Time TempWeatherWind HumidityBarometerVisibility
10:30 am
Sun, Apr 30
84 °FSunny.25 mph43%29.89 "Hg10 mi
10:00 am84 °FSunny.21 mph43%29.89 "Hg10 mi
9:30 am79 °FSunny.21 mph51%29.86 "Hg10 mi
9:00 am79 °FSunny.16 mph51%29.86 "Hg10 mi
8:30 am73 °FClear.7 mph53%29.86 "Hg4 mi
8:00 am73 °FClear.7 mph53%29.86 "Hg4 mi
7:30 am70 °FClear.5 mph69%29.83 "Hg4 mi
7:00 am70 °FClear.5 mph69%29.83 "Hg4 mi
6:30 am66 °FClear.No wind73%29.80 "Hg4 mi
6:00 am66 °FClear.No wind73%29.80 "Hg4 mi
5:30 am64 °FPassing clouds.5 mph83%29.80 "Hg4 mi
4:30 am64 °FPassing clouds.5 mph78%29.80 "Hg4 mi
4:00 am64 °FPassing clouds.5 mph78%29.80 "Hg4 mi
3:30 am66 °FMild.3 mph73%29.80 "HgN/A
3:00 am66 °FMild.3 mph73%29.80 "HgN/A
2:00 am68 °FMild.3 mph73%29.80 "HgN/A
1:30 am70 °FMild.3 mph73%29.83 "HgN/A
12:00 am70 °FPassing clouds.9 mph73%29.83 "Hg4 mi
11:00 pm
Sat, Apr 29
72 °FPassing clouds.9 mph73%29.86 "Hg4 mi
10:30 pm73 °FPassing clouds.7 mph69%29.86 "Hg4 mi
10:00 pm73 °FPassing clouds.7 mph69%29.86 "Hg4 mi
9:00 pm75 °FPassing clouds.7 mph65%29.86 "Hg4 mi
8:00 pm75 °FPassing clouds.7 mph65%29.86 "Hg4 mi
7:00 pm79 °FPassing clouds.12 mph58%29.83 "Hg4 mi
6:00 pm79 °FScattered clouds.16 mph54%29.83 "HgN/A
5:00 pm81 °FScattered clouds.12 mph51%29.80 "HgN/A
4:00 pm81 °FScattered clouds.7 mph51%29.83 "HgN/A
3:00 pm81 °FScattered clouds.5 mph45%29.83 "HgN/A
1:30 pm77 °FScattered clouds.18 mph51%29.86 "HgN/A
12:25 pm73 °FBroken clouds.14 mph61%29.65 "HgN/A
Weather by CustomWeather, © 2017

See weather overviewHow to use our weather pages